GFSCGP_con_mucape_057.txt.gz
CAPE
0 0 0 0 0 0 0 0 0 0 0 0 0 0 0 0 0 0 0 0 0 0 0 0 0 0 0 0 98 701 539 878 975 750 860 1109 1205 1217 1329 1139 1189 1167 1067 1080
0 0 0 0 0 0 0 0 0 0 0 0 0 0 0 0 0 0 0 0 0 0 0 0 0 0 0 0 0 0 9 164 466 366 378 688 931 1200 1319 1415 1661 1732 1812 1760
0 0 0 0 0 0 0 0 0 0 0 0 0 0 0 0 0 0 0 0 0 0 0 0 0 0 0 0 0 0 0 1 26 172 538 837 964 1066 1224 1390 1175 1056 1331 1632
0 0 0 0 0 0 0 0 0 0 0 0 0 0 0 0 0 0 0 0 0 0 0 0 0 0 0 0 0 0 0 0 8 450 789 895 794 937 1013 984 946 912 969 1062
0 0 0 0 0 0 0 0 0 0 0 0 0 0 0 0 0 0 0 0 0 0 0 0 0 0 0 0 0 0 0 0 9 170 878 872 800 612 742 623 522 595 503 526
0 0 0 0 0 0 0 0 0 0 0 0 0 0 0 0 0 0 0 0 0 0 0 0 0 0 0 0 0 0 0 0 6 62 446 724 578 638 614 199 163 6 75 486
0 0 0 0 0 0 0 0 0 0 0 0 0 0 0 0 0 0 0 0 0 0 0 0 0 0 0 0 0 0 0 0 0 38 161 321 478 368 305 180 8 57 332 798
0 0 0 0 0 0 0 0 0 0 0 0 0 0 0 0 0 0 0 0 0 0 0 0 0 0 0 0 0 0 0 0 0 9 54 142 302 409 147 58 49 154 472 779
0 0 0 0 0 0 0 0 0 0 0 0 0 0 0 0 0 0 0 0 0 0 0 0 0 0 0 0 0 0 1 0 0 0 103 122 228 151 22 5 193 438 753 1005
0 0 0 0 0 0 0 0 0 0 0 0 0 0 0 0 0 0 0 0 0 0 0 0 0 0 0 0 0 0 92 246 0 0 16 22 10 26 33 231 508 750 840 1147
0 0 0 0 0 0 0 0 0 0 0 0 0 0 0 1 16 0 0 0 0 0 0 0 0 0 0 0 0 0 228 629 16 0 3 0 42 38 243 441 637 852 1011 1363
0 0 0 0 0 0 0 0 0 0 0 0 0 0 0 0 0 0 0 0 0 0 0 0 0 0 0 0 0 0 413 730 639 0 0 0 106 365 524 593 697 947 1262 1618
2 0 0 0 0 0 0 0 0 0 0 0 0 0 0 0 0 0 0 4 0 0 0 0 8 27 7 36 6 0 520 878 996 60 151 415 604 723 827 909 972 1128 1381 1533
37 10 0 0 0 0 0 0 0 0 0 0 0 0 0 0 0 3 23 7 0 0 0 7 28 44 99 80 55 48 509 1105 1306 690 700 1069 1249 1099 1026 1076 1128 1197 1374 1641
50 0 0 0 0 0 0 0 0 0 0 0 0 0 0 0 0 60 7 13 1 103 55 42 21 88 221 151 61 38 399 1197 1547 1304 1215 1394 1599 1418 1258 1229 1206 1415 1774 1539
7 0 0 0 0 0 0 0 0 0 0 0 0 0 0 0 7 0 0 0 0 9 10 13 30 90 330 255 134 69 247 772 1814 1545 1448 1547 1576 1645 1687 1725 2024 1818 1372 1442
0 0 0 0 0 0 0 0 0 0 0 0 0 0 0 0 0 0 0 0 0 0 4 40 45 72 227 246 205 97 103 673 1594 1692 1611 1645 1752 1954 2001 2052 1720 1556 1411 1341
0 0 0 0 0 0 0 0 0 0 0 0 0 0 0 0 0 0 0 0 0 0 0 21 70 67 165 235 202 33 32 450 1270 1284 1191 1214 1637 1612 1724 1732 1524 1265 914 554
0 3 0 0 0 0 0 0 0 0 0 0 0 0 0 0 0 0 0 0 0 0 0 0 30 30 114 214 80 17 44 475 1008 945 945 1134 1322 1388 1381 1384 1298 941 471 359
8 8 0 0 0 0 0 0 0 0 0 0 0 0 0 0 0 0 0 0 0 0 0 0 24 41 106 57 45 6 86 292 918 780 835 943 1015 936 874 671 556 222 9 24
0 0 0 0 0 0 0 0 0 0 0 1 5 9 0 0 0 0 0 0 0 0 0 0 26 16 71 20 98 2 205 514 563 527 650 670 680 477 450 123 68 43 37 43
0 0 0 0 0 0 0 7 0 1 55 18 2 0 0 0 0 0 0 0 0 0 0 0 4 17 63 31 48 0 112 274 250 354 519 492 405 581 127 78 44 21 29 18
4 10 0 0 0 0 2 0 2 30 15 5 0 0 0 0 0 0 0 0 0 0 0 3 29 30 28 68 1 0 111 11 203 330 366 509 161 138 108 53 18 10 18 15
0 0 0 0 0 0 1 0 20 6 0 0 0 0 0 0 0 0 0 0 0 0 0 32 90 4 74 32 2 3 3 94 206 49 55 61 65 15 24 19 21 20 15 1
0 0 0 0 0 0 0 15 6 0 0 0 0 0 0 0 0 0 0 0 0 0 3 96 29 78 92 0 19 13 38 111 98 61 40 16 23 23 19 21 27 37 35 29
0 0 0 0 0 0 0 5 0 0 0 0 0 0 0 0 0 0 0 0 0 0 25 85 116 113 86 139 115 83 60 151 170 82 44 25 22 19 17 21 13 24 32 23

GFSCGP_con_mucape_060.txt.gz
CAPE
0 0 0 0 0 0 0 0 0 0 0 0 0 0 0 0 0 0 0 0 0 0 0 0 0 0 0 0 2 0 55 381 1044 1022 892 550 344 289 248 315 345 545 675 568
0 0 0 0 0 0 0 0 0 0 0 0 0 0 0 0 0 0 0 0 0 0 0 0 0 0 0 0 2 0 0 4 155 560 1034 943 806 633 715 796 747 773 909 911
0 0 0 0 0 0 0 0 0 0 0 0 0 0 0 0 0 0 0 0 0 0 0 0 0 0 0 0 0 0 0 0 0 38 206 541 903 824 801 1155 1280 1277 1236 1394
0 0 0 0 0 0 0 0 0 0 0 0 0 0 0 0 0 0 0 0 0 0 0 0 0 0 0 0 0 0 0 0 0 0 24 141 349 601 527 600 935 1010 1250 1533
0 0 0 0 0 0 0 0 0 0 0 0 0 0 0 0 0 0 0 0 0 0 0 0 0 0 0 0 0 0 0 0 0 0 4 85 136 191 352 555 863 1003 1133 1034
0 0 0 0 0 0 0 0 0 0 0 0 0 0 0 0 0 0 0 0 0 0 0 0 0 0 0 0 0 0 0 0 0 0 0 81 261 366 487 653 734 822 722 575
0 0 0 0 0 0 0 0 0 0 0 0 0 0 0 0 0 0 0 0 0 0 0 0 0 0 0 0 0 0 0 0 0 0 0 4 189 405 486 481 506 596 337 189
0 0 0 0 0 0 0 0 0 0 0 0 0 0 0 0 0 0 0 0 0 0 0 0 0 0 0 0 0 0 0 0 0 0 0 0 48 265 408 540 407 528 325 95
0 0 0 0 0 0 0 0 0 0 0 0 0 0 0 0 0 0 0 0 0 0 0 0 0 0 0 0 0 0 0 0 0 0 0 0 3 108 191 411 389 349 259 153
0 0 0 0 0 0 0 0 0 0 0 0 0 0 0 0 0 0 0 0 0 0 0 0 0 0 0 0 0 0 0 0 0 0 16 0 0 38 137 211 189 269 151 372
0 0 0 0 0 0 0 0 0 0 0 0 0 0 0 0 0 0 0 0 0 0 0 0 0 0 0 0 0 0 0 0 0 47 240 0 0 0 143 216 300 242 190 417
5 0 0 0 0 0 0 0 0 0 0 0 0 0 0 0 0 0 0 0 7 18 4 0 0 0 0 0 0 0 0 0 0 192 559 79 0 0 62 92 124 226 330 565
14 0 0 0 0 0 0 0 0 0 0 0 0 0 0 0 0 0 0 0 27 25 37 11 7 0 0 0 0 0 0 0 7 735 803 53 0 25 85 154 280 417 555 755
33 0 0 0 0 0 0 0 0 0 0 0 0 0 0 0 0 0 0 2 7 3 6 4 2 0 0 2 0 22 19 0 96 1172 741 20 12 161 249 327 428 590 745 1007
3 0 0 4 1 0 0 0 0 0 0 0 0 0 0 0 0 0 0 0 0 0 0 0 0 0 0 2 1 0 50 9 322 1381 772 385 540 532 578 615 660 750 946 1285
7 0 0 0 0 0 0 0 0 0 0 0 0 0 0 0 0 0 0 0 0 0 0 0 0 0 0 1 36 23 105 74 408 1671 1247 1130 1125 983 941 1134 1205 1157 1275 1339
0 0 0 0 0 0 0 0 0 0 0 0 0 0 0 0 0 0 0 0 0 0 0 0 0 0 0 0 24 57 124 95 221 1146 1523 1543 1645 1501 1971 1799 1730 1346 1284 1650
0 0 0 0 0 0 0 0 0 0 0 0 0 0 0 0 0 0 1 0 0 0 0 0 0 0 0 18 4 67 144 91 106 1048 1661 1639 1572 1680 1537 1507 1147 1582 1623 1427
0 0 0 0 0 0 0 0 0 0 0 0 0 0 0 1 2 0 0 0 0 0 0 0 0 0 0 2 58 150 171 179 239 794 1569 1571 1523 1387 1395 1508 1478 1564 1531 1389
0 9 0 0 0 0 0 0 0 0 0 0 0 0 0 2 0 0 0 0 0 0 0 0 0 0 0 33 94 93 257 88 171 529 1201 1202 1120 1040 1261 1175 1455 1387 1004 580
0 0 0 0 0 0 0 0 0 0 0 0 0 0 12 0 0 0 0 0 0 0 0 0 0 0 0 69 127 125 137 6 234 855 980 915 1027 1081 1113 1157 1203 875 373 280
0 0 0 0 0 0 0 0 17 4 0 25 0 10 0 0 0 0 0 0 0 0 0 0 0 0 3 57 61 92 19 117 573 1019 791 638 581 740 896 740 522 505 356 6
0 0 0 0 0 0 0 0 0 2 25 0 4 0 0 0 0 0 0 0 0 0 0 0 1 0 65 7 33 56 12 162 343 520 521 433 444 380 365 188 56 27 25 1
0 0 0 0 0 0 0 0 21 21 1 0 0 0 0 0 0 0 0 0 0 0 0 0 4 46 0 41 34 21 37 122 136 137 324 390 317 257 37 22 38 29 4 0
0 0 0 0 0 0 0 0 8 0 0 0 0 0 0 0 0 0 0 0 1 0 0 3 32 15 3 6 4 34 60 157 124 8 103 198 284 102 59 35 37 19 6 4
0 0 0 0 0 0 0 4 41 0 0 0 0 0 0 0 0 0 0 2 8 3 1 32 96 0 0 4 58 91 49 79 117 121 139 86 60 72 30 19 17 15 32 29

GFSCGP_con_mucape_063.txt.gz
CAPE
0 0 0 0 0 0 0 0 0 0 0 0 0 0 0 0 0 0 0 0 0 0 0 0 0 0 0 0 0 0 0 257 1748 1286 1002 740 550 317 134 238 179 237 317 94
0 0 0 0 0 0 0 0 0 0 0 0 0 0 0 0 0 0 0 0 0 0 0 0 0 0 0 0 0 0 0 0 182 1017 1448 1357 1230 849 494 414 870 802 591 492
0 0 0 0 0 0 0 0 0 0 0 0 0 0 0 0 0 0 0 0 0 0 0 0 0 0 0 0 0 0 0 0 0 6 498 1243 1379 1338 1522 1511 1502 1610 1351 1162
0 0 0 0 0 0 0 0 0 0 0 0 0 0 0 0 0 0 0 0 0 0 0 0 0 0 0 0 0 0 0 0 0 0 6 773 561 901 1361 1843 1941 2275 1635 1480
0 0 0 0 0 0 0 0 0 0 0 0 0 0 0 0 0 0 0 0 0 0 0 0 0 0 0 0 0 0 0 0 0 0 0 4 441 478 1289 1387 2415 2242 2120 2027
0 0 0 0 0 0 0 0 0 0 0 0 0 0 0 0 0 0 0 0 0 0 0 0 0 0 0 0 0 0 0 0 0 0 0 1 207 629 643 1059 1287 1661 1685 1954
0 0 0 0 0 0 0 0 0 0 0 0 0 0 0 0 0 0 0 0 0 0 0 0 0 0 0 0 0 0 0 0 0 0 0 0 76 450 943 1226 1105 1126 1082 1367
0 0 0 0 0 0 0 0 0 0 0 0 0 0 0 0 0 0 0 0 0 0 0 0 0 0 0 0 0 0 0 0 0 0 0 0 1 3 405 1149 1139 737 785 1405
0 0 0 0 0 0 0 0 0 0 0 0 0 0 0 0 0 0 0 0 0 0 0 0 0 0 0 0 0 0 0 0 0 0 0 0 0 145 280 1321 1749 1150 1356 1203
0 0 0 0 0 0 0 0 0 0 0 0 0 0 0 0 0 0 0 0 0 0 0 0 0 0 0 0 0 0 0 0 0 0 0 0 0 26 454 971 1403 1148 1253 1033
0 0 0 0 0 0 0 0 0 0 0 0 0 0 0 0 0 0 0 0 0 0 0 0 0 0 0 0 0 0 0 0 0 0 0 0 0 4 204 603 602 928 1030 1121
0 13 0 0 0 0 0 0 0 0 0 0 0 0 0 0 0 0 0 0 0 0 0 0 0 10 22 0 0 0 0 0 0 0 0 0 9 72 186 375 552 770 1007 1113
48 78 0 0 0 0 0 0 0 1 0 0 0 0 0 0 0 0 0 0 0 0 0 0 0 0 11 7 1 0 0 0 0 0 0 0 640 469 361 463 738 936 1120 1251
30 49 17 0 0 0 0 1 8 19 0 0 0 0 0 0 0 0 0 0 0 0 0 0 0 15 10 0 0 0 0 0 0 0 2 6 740 824 440 639 988 1190 1285 1399
37 0 0 1 14 27 9 12 1 23 14 0 0 0 0 2 0 0 0 0 0 0 0 0 0 10 0 0 0 0 0 0 0 0 0 31 851 907 343 707 1105 1302 1448 1564
41 0 0 0 21 28 17 0 0 0 0 0 0 0 0 0 0 0 0 0 0 0 0 0 0 0 0 0 0 0 0 0 0 10 0 129 1117 846 572 1071 1334 1445 1618 1800
0 18 0 0 0 0 0 0 0 0 0 0 0 0 8 0 1 0 0 0 0 0 0 0 0 0 0 1 0 0 0 0 3 31 7 502 1480 936 964 1124 1226 1456 1458 1661
0 0 0 0 0 0 0 0 3 3 1 0 0 3 4 1 4 3 2 1 0 0 0 0 0 0 0 0 1 0 0 49 54 69 86 1057 1677 1300 1221 1333 1522 1414 1819 1876
0 0 0 0 0 0 0 0 3 2 0 0 0 1 8 11 18 0 0 0 0 0 0 0 0 0 0 0 0 0 4 51 64 56 77 1127 1339 1535 1754 1804 1686 2034 1632 1298
0 1 0 3 0 0 0 2 0 4 23 0 8 6 1 0 0 0 0 0 0 0 0 0 0 0 0 0 0 0 9 26 44 61 110 794 1103 1704 1877 1802 1534 932 1153 1566
0 0 0 0 0 0 0 1 7 49 36 30 46 30 0 0 0 0 0 0 0 0 0 0 0 0 0 0 0 1 17 15 33 33 138 708 1391 1155 1336 1161 942 1385 1344 1314
0 0 39 0 34 27 70 21 0 36 16 45 50 0 0 0 0 0 0 0 0 0 0 0 0 0 0 0 0 26 11 4 21 162 363 1054 1362 887 907 822 1065 971 1042 972
0 56 69 0 40 6 0 0 1 45 67 53 0 0 0 0 0 0 0 0 0 0 0 0 0 0 0 0 59 9 8 38 145 266 765 1062 592 548 588 786 756 820 831 353
0 0 0 0 0 0 0 0 35 67 86 38 0 0 0 0 0 0 0 0 0 1 4 4 4 4 0 53 36 71 81 156 108 375 751 544 510 397 372 627 765 642 113 9
0 0 0 0 2 0 0 0 79 0 0 0 0 0 0 0 0 0 0 0 0 1 7 9 9 9 1 27 18 27 60 37 136 375 399 269 234 261 362 279 233 35 20 0
0 0 0 0 0 0 0 85 57 17 0 0 0 0 0 0 0 0 0 0 0 3 9 17 21 43 50 34 2 44 65 123 107 230 277 277 177 123 37 30 18 17 9 9

GFSCGP_con_mucape_069.txt.gz
CAPE
0 0 0 0 0 0 0 0 0 0 0 0 0 0 0 0 0 0 0 0 0 0 0 0 0 0 0 0 0 0 0 3 522 2069 1688 1842 1632 1109 487 538 918 1129 1160 1039
0 0 0 0 0 0 0 0 0 0 0 0 0 0 0 0 0 0 0 0 0 0 0 0 0 0 0 0 2 0 0 13 27 191 2333 1941 2209 2109 1572 1027 867 897 1291 1596
0 0 0 0 0 0 0 0 0 0 2 1 0 0 0 0 0 0 0 0 0 0 0 0 0 0 0 0 0 0 0 1 84 64 228 1332 2110 2088 2516 2274 1999 1908 1435 1690
0 0 0 0 0 0 0 0 0 0 4 0 2 0 2 0 0 0 0 0 0 0 0 0 0 0 0 0 0 0 0 0 45 36 251 790 543 853 929 2141 3444 2890 1673 1791
0 3 0 0 0 1 0 7 11 18 16 8 0 0 0 0 0 0 0 0 0 0 0 0 0 0 0 0 0 0 0 0 45 194 406 143 290 54 144 843 2897 2989 1308 2376
3 9 7 2 3 1 0 9 19 17 18 0 0 1 0 18 0 0 0 0 0 0 0 0 0 0 0 0 0 0 0 0 4 13 101 421 287 543 281 457 862 840 2054 3085
30 30 35 15 7 7 19 10 0 0 0 0 28 6 10 1 0 2 0 0 0 0 0 0 0 0 0 0 0 0 0 0 0 1 12 23 322 508 570 801 339 636 616 1250
105 115 122 108 11 18 71 80 57 0 0 42 1 0 6 0 0 0 0 0 0 0 0 0 0 0 0 0 0 0 0 0 0 0 0 17 134 0 38 351 209 231 362 623
264 171 42 61 63 38 55 149 99 79 60 21 22 60 26 0 0 0 0 0 0 0 0 0 0 0 0 0 0 0 0 0 0 0 4 4 101 270 168 770 1018 314 1077 707
199 165 207 163 72 62 177 130 170 138 87 0 0 30 20 13 8 0 0 0 1 1 0 0 0 0 0 0 0 0 0 0 0 0 0 16 48 52 255 514 941 1177 1540 1985
239 215 236 188 289 245 189 129 161 166 131 161 117 46 8 2 7 22 14 20 2 2 11 3 2 0 0 0 0 1 4 0 0 0 0 0 4 62 150 665 732 1075 1632 2092
184 226 252 164 209 233 259 22 152 241 181 203 139 48 1 0 21 42 4 2 15 37 15 10 5 2 3 3 2 0 0 2 2 0 0 0 0 0 394 491 644 1358 1549 1719
264 194 235 219 199 234 239 220 183 217 289 184 296 101 71 32 30 27 40 82 47 52 37 22 10 10 13 12 3 0 5 13 2 0 0 1 13 86 426 509 799 407 1435 1574
22 167 132 161 165 12 0 120 199 145 298 97 105 60 33 37 12 128 115 86 70 80 47 40 25 12 10 8 10 5 3 1 1 0 0 0 61 56 216 433 569 527 566 1467
45 49 80 71 56 46 38 48 77 112 187 114 73 65 39 54 58 104 127 101 90 68 73 64 53 46 25 17 7 2 0 0 0 0 0 0 36 48 49 226 345 503 424 1776
67 75 55 63 54 55 89 67 48 58 67 90 56 41 33 18 60 75 109 171 125 70 78 74 72 78 70 63 46 9 4 3 1 0 0 0 0 7 95 329 400 819 399 2162
70 116 79 109 62 82 78 71 50 45 55 53 55 42 80 55 109 184 176 148 133 121 72 88 95 76 72 52 32 14 13 9 10 3 0 0 4 13 70 191 223 758 995 2309
38 42 63 45 66 0 48 103 136 117 107 134 106 128 160 157 152 158 165 130 35 52 72 58 49 33 55 34 57 23 14 41 15 14 2 1 29 37 110 424 712 1033 1213 2253
51 24 128 70 100 72 85 205 231 216 140 106 129 164 173 201 121 72 111 104 79 59 40 39 52 39 123 46 18 6 25 52 39 21 24 31 65 169 343 487 919 600 1462 2243
19 30 76 116 180 82 177 122 209 168 83 346 319 222 113 69 113 125 195 37 6 9 46 50 64 35 41 38 42 84 78 60 52 41 47 101 205 608 765 880 780 486 1698 2426
31 22 13 76 78 87 172 266 212 157 226 247 141 123 94 70 77 80 13 30 34 30 43 45 11 41 41 17 39 0 82 39 66 54 54 166 696 911 980 950 424 913 2084 2306
135 132 146 140 115 176 229 131 167 263 204 158 124 68 70 55 42 44 44 41 49 33 39 13 0 0 16 12 4 2 8 50 80 48 55 458 632 829 887 816 301 1145 1512 1744
123 255 364 108 218 269 202 214 240 181 101 41 33 33 33 4 2 27 42 29 12 3 0 0 0 0 1 9 8 2 14 34 34 133 265 519 800 732 756 277 376 924 1243 1184
44 57 121 68 57 37 13 4 35 6 59 0 0 0 0 0 0 0 0 0 0 0 0 0 0 0 2 3 6 12 48 68 82 75 119 601 559 673 297 330 877 988 1052 1273
0 73 0 0 13 0 0 0 0 47 99 42 28 0 0 0 0 0 0 0 0 0 0 1 2 1 1 5 11 7 52 65 80 308 401 290 476 399 492 709 847 966 1174 1259
0 0 0 0 0 0 0 2 0 2 2 0 0 0 0 0 0 0 0 0 1 3 1 5 1 1 0 5 4 5 41 140 137 133 271 290 125 70 457 893 771 762 1084 751

GFSCGP_con_mucape_072.txt.gz
CAPE
0 0 0 0 0 0 0 0 0 0 0 0 0 0 0 0 0 0 0 0 0 0 0 112 19 1 0 77 213 370 381 505 1179 2539 1602 1423 1433 1228 876 1122 805 1008 1387 1600
0 0 0 0 0 0 0 0 0 0 0 0 0 0 0 0 0 0 0 0 0 0 0 37 122 1 9 44 53 87 488 642 299 2051 2482 1298 1394 1723 1033 756 400 659 1521 1188
0 0 0 0 0 0 0 0 0 0 0 1 1 0 0 0 0 0 0 4 0 2 0 0 5 31 2 90 161 10 138 230 490 462 545 1539 2047 2241 1927 2424 1480 1095 406 898
0 0 0 1 0 0 0 0 0 0 0 0 3 0 22 0 6 0 0 0 0 0 7 4 0 0 2 0 31 191 59 89 59 267 572 913 749 587 421 143 2342 2396 1785 707
0 0 5 20 0 1 0 1 0 0 7 19 1 5 0 0 0 2 0 0 0 0 0 0 0 0 0 0 0 8 129 258 262 85 305 448 626 361 416 1210 1277 1321 2501 1793
0 0 0 3 24 1 2 11 5 0 0 0 0 37 0 6 15 22 30 0 0 0 0 0 0 0 0 0 0 0 25 344 274 458 291 415 692 658 517 462 816 1051 1725 1876
46 42 66 92 37 34 7 25 16 50 58 15 0 16 1 28 35 12 10 0 0 0 0 3 5 0 6 2 13 17 172 193 281 243 217 467 486 784 714 619 237 364 285 1106
80 70 141 40 1 102 158 54 118 48 84 44 58 12 26 13 0 0 0 0 0 0 0 13 19 17 5 33 61 18 141 118 213 255 176 452 202 306 270 292 139 144 101 174
103 67 73 38 39 93 95 35 40 192 154 105 4 0 3 1 14 0 0 0 0 0 0 1 0 3 23 29 18 51 127 131 290 350 786 721 839 763 263 409 495 204 464 449
53 120 43 69 133 104 46 15 118 41 95 0 14 24 0 16 45 37 0 0 0 2 0 0 0 10 31 28 245 254 147 149 144 101 330 398 785 990 751 789 781 547 582 724
73 164 87 52 46 163 106 144 200 241 313 91 19 16 78 2 38 26 1 2 1 11 4 0 8 24 32 39 12 234 269 180 222 299 216 240 408 500 751 872 944 993 969 1171
58 16 116 14 33 130 186 189 255 86 99 203 192 31 110 0 1 92 0 5 3 0 2 15 15 8 22 31 22 28 165 35 13 161 181 361 476 358 461 515 541 1006 1062 1018
55 57 25 2 111 66 2 21 15 26 43 0 28 30 85 42 80 17 9 53 20 65 49 20 9 7 11 25 32 16 22 1 19 41 26 39 124 560 605 583 611 517 416 716
4 0 14 14 18 60 22 5 1 0 55 101 59 32 44 81 1 3 23 77 10 58 144 87 107 14 12 14 9 4 4 8 11 8 6 30 133 93 0 39 89 192 286 283
10 19 29 23 25 29 25 19 8 19 3 64 19 34 42 126 17 24 89 52 0 6 2 110 217 135 79 46 44 38 33 12 4 4 0 16 21 11 0 0 0 0 38 251
56 42 38 21 37 31 39 32 59 29 23 16 18 29 51 144 93 21 14 124 25 166 188 116 110 119 109 175 109 59 69 37 10 2 0 0 0 0 0 0 0 0 19 121
15 30 60 34 58 22 4 111 42 28 56 10 14 21 189 211 98 151 196 88 188 266 25 28 74 171 262 89 25 0 0 0 0 0 0 0 1 1 0 0 0 0 12 195
10 27 52 20 31 0 8 26 41 16 3 34 7 1 22 49 28 1 19 116 44 114 24 79 84 72 63 18 0 0 0 0 0 0 0 0 0 6 5 0 0 0 40 318
16 45 128 53 104 30 30 51 184 192 148 204 267 228 64 32 43 123 314 14 6 15 10 5 12 1 0 4 2 0 0 0 0 4 1 2 4 18 7 13 0 77 168 358
25 49 61 49 82 3 99 221 132 23 108 229 137 124 88 34 125 20 88 32 1 3 2 0 0 0 0 2 2 0 0 0 0 18 33 33 30 12 28 47 31 213 329 841
30 5 12 48 67 21 188 189 170 64 223 177 90 13 22 19 30 39 3 0 2 0 4 3 7 22 20 51 29 23 35 5 1 4 21 19 29 18 7 108 359 749 791 928
206 318 144 83 78 95 168 27 94 84 103 102 22 24 0 0 0 0 21 25 24 13 11 16 25 22 19 26 3 0 0 4 2 4 27 26 41 35 16 291 651 758 777 770
195 112 43 159 268 327 75 71 76 48 37 33 16 17 29 0 0 29 0 0 0 0 0 0 0 0 0 0 0 0 1 2 2 7 44 53 46 46 136 455 628 794 736 651
33 52 138 13 51 32 0 5 0 0 0 0 32 32 85 0 0 0 0 0 0 0 0 0 0 0 0 0 0 1 7 6 2 28 10 14 128 297 404 552 638 680 719 543
0 5 0 0 0 0 0 0 0 0 0 0 0 0 0 0 0 0 0 0 0 0 0 0 0 0 0 0 0 7 5 4 23 40 35 64 199 329 369 512 375 552 492 797
0 0 0 0 0 0 0 0 0 0 0 0 0 0 0 0 0 0 0 0 0 0 0 1 0 0 0 1 0 0 2 2 3 47 21 58 86 259 254 142 248 103 533 1053

GFSCGP_con_mucape_075.txt.gz
CAPE
0 0 0 0 0 0 0 0 0 0 0 0 0 0 0 0 0 0 0 0 0 0 0 0 0 0 0 0 0 52 106 63 812 1666 1365 1202 1029 966 908 628 760 728 1429 2106
0 0 0 0 0 0 0 0 0 0 0 0 0 0 0 0 0 0 0 0 0 0 0 0 19 0 0 0 10 0 41 209 162 2034 1470 1249 1153 1045 709 775 737 513 611 958
0 0 0 0 0 0 0 0 0 0 0 0 0 0 0 0 0 0 0 0 0 0 0 0 0 0 0 0 0 0 11 19 96 640 1953 1563 1414 1790 1277 784 621 583 365 400
0 0 0 0 0 0 0 0 0 0 0 0 0 0 0 0 0 0 0 0 0 0 0 0 0 0 0 0 0 0 17 23 35 88 375 1230 1105 919 1300 1452 1157 1184 934 826
0 0 0 0 0 0 3 0 0 0 0 0 0 0 0 0 0 0 0 0 0 0 0 0 1 0 0 0 0 0 1 23 30 26 91 245 451 376 351 289 494 1408 1167 836
0 0 0 0 0 1 20 5 0 0 0 0 0 0 0 0 0 0 0 0 0 0 0 0 0 0 0 0 0 0 0 11 113 75 14 13 76 254 145 89 87 613 444 642
0 0 2 8 7 0 1 11 0 0 0 0 0 0 1 0 0 0 0 0 0 0 0 0 0 0 0 0 0 0 0 0 4 17 43 152 166 230 143 61 47 23 277 393
0 0 0 40 14 5 0 1 0 23 0 0 0 5 0 1 31 0 0 0 0 0 0 0 0 0 0 0 0 0 0 0 7 23 52 42 78 280 286 226 73 19 35 96
0 0 0 21 36 0 7 37 24 10 1 0 0 0 0 17 13 24 0 0 0 0 0 0 0 0 0 0 0 2 12 8 0 0 2 8 183 139 69 49 65 378 196 112
0 0 0 25 60 34 84 47 33 21 0 6 0 9 29 45 9 0 3 0 0 0 0 0 0 0 0 0 1 2 1 0 0 0 0 189 126 169 146 151 135 101 155 232
0 8 2 2 33 11 21 16 10 2 4 42 0 0 110 17 0 0 0 0 0 0 0 0 0 0 0 0 2 7 12 9 7 3 0 0 0 22 187 459 424 495 550 560
12 3 0 28 21 0 31 14 7 29 0 1 3 0 1 59 15 3 8 0 3 8 7 0 3 0 0 0 0 0 28 14 7 21 29 7 4 0 0 2 7 5 25 320
16 10 0 0 0 1 5 4 2 0 1 0 4 0 0 99 2 0 0 3 0 0 0 1 17 2 0 0 0 0 0 0 0 0 0 14 4 4 18 0 0 5 15 38
2 0 0 0 0 0 0 0 1 8 0 0 0 2 0 46 58 4 0 18 0 0 0 4 8 14 5 5 0 0 0 0 0 0 0 0 0 0 0 0 0 0 0 0
0 0 0 3 11 2 2 0 0 10 0 0 0 0 0 41 114 77 11 1 5 5 0 0 9 8 5 1 0 0 0 0 0 0 0 0 0 0 0 0 0 0 0 0
1 0 2 0 0 0 4 1 5 14 27 52 24 18 4 29 35 5 4 10 12 0 0 82 62 2 12 5 8 8 9 0 0 0 0 0 0 0 0 0 0 0 0 0
0 0 0 0 0 0 0 8 41 7 15 23 7 0 7 17 33 17 46 69 24 18 64 67 28 0 0 4 6 17 1 0 0 0 0 0 0 0 0 0 0 0 0 0
0 0 0 0 0 0 0 10 57 140 98 11 11 47 0 8 25 17 45 53 35 35 8 22 17 9 3 0 0 2 0 0 0 0 0 0 0 0 0 0 0 0 0 0
0 0 0 0 0 0 5 83 97 38 36 20 4 1 0 0 0 5 34 16 0 0 1 0 0 0 0 0 0 0 0 0 0 0 0 0 0 0 0 0 0 0 0 0
18 1 0 0 0 0 24 40 11 35 8 0 0 0 0 0 0 0 0 0 0 0 0 0 0 0 0 0 0 0 0 0 0 0 0 0 0 0 0 0 0 0 0 0
6 0 0 0 0 0 13 8 0 5 0 0 0 0 0 0 0 0 0 0 0 0 0 0 0 0 0 0 0 0 0 0 0 0 0 0 0 0 0 0 0 0 0 0
3 14 1 0 4 5 5 1 0 0 0 0 0 0 0 0 0 0 0 0 0 0 0 0 0 0 0 0 0 0 0 0 0 0 0 0 0 2 1 1 1 7 0 5
20 7 17 26 29 13 0 3 0 0 0 0 0 0 0 0 0 0 0 0 0 0 0 0 0 0 0 0 0 0 0 0 0 0 0 1 2 3 1 7 28 38 24 57
7 0 0 0 0 0 0 0 0 0 0 0 0 0 0 0 0 0 0 0 0 0 0 0 0 0 0 0 0 0 0 0 0 0 1 1 1 1 1 28 34 40 69 149
0 0 0 0 0 0 0 0 0 0 0 0 0 4 0 0 0 0 0 0 0 0 0 0 0 0 0 0 0 0 0 0 0 5 4 1 9 18 20 5 48 112 166 213
0 0 0 0 0 0 0 0 0 0 0 0 0 0 0 0 0 0 0 0 0 0 0 0 0 0 0 0 0 0 0 0 4 1 2 1 17 13 23 11 124 143 168 195